Location: Downe
(51.3167°N, 0.0500°E)
Time: 12:28:44
(UTC+00:00)

Tsikada Rocket - Visible Passes

Search period start: 18 February 2020 00:00
Search period end: 28 February 2020 00:00
Orbit: 958 x 1009 km, 82.9° (Epoch: 17 February)

Date Brightness Start Highest point End Pass type
(mag) Time Alt. Az. Time Alt. Az. Time Alt. Az.
18 Feb 4.6 17:43:26 10° N 17:49:11 35° ENE 17:54:59 10° SE visible
18 Feb 4.9 19:28:54 10° NNW 19:35:00 51° W 19:41:08 10° SSW visible
19 Feb 4.1 18:11:04 10° N 18:17:20 58° ENE 18:23:38 10° SSE visible
19 Feb 5.9 19:57:10 10° NNW 20:02:34 30° W 20:07:59 10° SW visible
20 Feb 6.8 06:05:31 10° ESE 06:09:22 17° ENE 06:13:15 10° NE visible
20 Feb 4.1 18:38:53 10° N 18:45:17 87° W 18:51:42 10° S visible
20 Feb 6.6 20:25:53 10° NW 20:29:56 18° WNW 20:33:59 10° WSW visible
21 Feb 4.9 19:06:53 10° NNW 19:13:01 52° W 19:19:12 10° SSW visible
22 Feb 5.9 19:35:08 10° NNW 19:40:36 31° W 19:46:04 10° SW visible
23 Feb 6.9 05:43:35 10° ESE 05:47:23 17° ENE 05:51:13 10° NE visible
23 Feb 4.1 18:16:53 10° N 18:23:17 88° W 18:29:44 10° S visible
23 Feb 6.7 20:03:50 10° NW 20:07:58 18° WNW 20:12:07 10° WSW visible
24 Feb 6.3 06:09:31 10° SE 06:14:44 29° E 06:20:01 10° NNE visible
24 Feb 5.0 18:44:53 10° NNW 18:51:04 53° W 18:57:15 10° SSW visible
25 Feb 6.0 19:13:07 10° NNW 19:18:38 32° W 19:24:09 10° SW visible
26 Feb 7.0 05:21:40 10° ESE 05:25:25 17° ENE 05:29:11 10° NE visible
26 Feb 4.2 17:54:53 10° N 18:01:19 90° W 18:07:46 10° S visible
26 Feb 6.8 19:41:48 10° NW 19:46:01 19° WNW 19:50:14 10° WSW visible
27 Feb 6.3 05:47:34 10° SE 05:52:45 29° E 05:58:00 10° NNE visible
27 Feb 5.0 18:22:53 10° NNW 18:29:05 54° W 18:35:18 10° SSW visible
27 Feb 7.4 20:12:24 10° WNW 20:13:12 10° WNW 20:14:00 10° WNW visible
